Starlink 11592

operational
NORAD ID: 63560 Int'l Des: 2025-075 Owner: SPXS Country: US Constellation: starlink
LEOCIRCULAR

Starlink 11592について

説明を読み込み中...

リアルタイム位置

3D地球を読み込み中...

次回通過

高度履歴

Altitude vs Time

uPlot chart will show altitude changes over time

軌道要素

1 63560U 25075N 25351.24475697 .00205674 00000-0 15659-2 0 9991
2 63560 43.0001 290.6179 0001865 266.1805 93.8849 15.70856443 40280
Epoch: Dec 17, 2025 • Age: 12 hours

現在のステータス

高度 359.2 km
速度 7.70 km/s
衛星直下点 38.88°N, 15.31°W
打ち上げ日 Apr 13, 2025
運用期間 0.6 years
タイプ internet

技術仕様

分類 Payload
質量 960.00 kg
乾燥質量 910.00 kg
総質量 960.00 kg
長さ 0.30 m
直径 4.10 m
スパン 29.00 m
形状 Box + pan
製造者 SPXS
バスタイプ Starlink V2MD
フェーズステータス In Orbit
所有者/国 SPXS/US

大規模コンステレーション

Loading constellations...